Location: Biltmore Gardens
(41.6070°N, 83.4666°W)
Time: 14:27:33
(UTC+00:00)

Cosmos 1515 Rocket - Pass Details

Date: 14 July 2020
Orbit: 606 x 630 km, 82.5° (Epoch: 04 August)

Event Time Altitude Azimuth Distance (km) Brightness Sun altitude
Rises 04:06:30 0° 358° (N) 2,884 8.2 -23.2°
Reaches altitude 10° 04:08:48 10° 4° (N) 1,978 7.0 -23.4°
Enters shadow 04:12:54 47° 73° (ENE) 823 4.1 -23.7°
